Starlink 32033

operational
NORAD ID: 60144 Int'l Des: 2024-120 Owner: SPXS Country: US Constellation: starlink
LEOCIRCULAR

Starlink 32033について

説明を読み込み中...

リアルタイム位置

3D地球を読み込み中...

次回通過

高度履歴

Altitude vs Time

uPlot chart will show altitude changes over time

軌道要素

1 60144U 24120K 25304.93385618 .00021789 00000-0 72682-3 0 9996
2 60144 53.1579 197.9439 0001228 109.5785 250.5349 15.31028860 76664
Epoch: Oct 31, 2025 • Age: 42 hours

現在のステータス

高度 477.5 km
速度 7.63 km/s
衛星直下点 -18.42°S, 101.63°E
打ち上げ日 Jun 27, 2024
運用期間 1.3 years
タイプ internet

技術仕様

分類 Payload
質量 730.00 kg
乾燥質量 700.00 kg
総質量 730.00 kg
長さ 0.30 m
直径 4.10 m
スパン 29.00 m
形状 Box + pan
製造者 SPXS
バスタイプ Starlink V2M
フェーズステータス In Orbit
所有者/国 SPXS/US

大規模コンステレーション

Loading constellations...